Location: Ar Ranvel
(48.3000°N, 4.8833°W)
Time: 10:10:13
(UTC+00:00)

CENTAUR R/B - Pass Details

Date: 16 June 2021
Orbit: 740 x 1447 km, 63.4° (Epoch: 17 July)

Event Time Altitude Azimuth Distance (km) Brightness Sun altitude
Rises 21:55:58 0° 241° (WSW) 3,468 5.5 -11.4°
Reaches altitude 10° 21:58:21 10° 246° (WSW) 2,616 4.9 -11.6°
Maximum altitude 22:04:21 52° 323° (NW) 1,280 3.6 -12.1°
Drops below altitude 10° 22:11:32 10° 38° (NE) 3,125 5.4 -12.7°
Sets 22:14:38 0° 44° (NE) 4,199 6.0 -13.0°
